| time (UTC) | temp F | wind direction | speed MPH | gust MPH | rain 1hr in | rain 24hr in | rain mn in | humidity % | barometer mb |
| 20260506154503 | 60 | 267 | 5.0 | 12.0 | 0.00 | 0.00 | 0.00 | 54 | 1017.6 |
| 20260506150005 | 59 | 273 | 5.0 | 10.0 | 0.00 | 0.00 | 0.00 | 58 | 1017.7 |
| 20260506144504 | 59 | 223 | 5.0 | 10.0 | 0.00 | 0.00 | 0.00 | 57 | 1017.7 |
| 20260506143005 | 59 | 264 | 3.0 | 9.0 | 0.00 | 0.00 | 0.00 | 57 | 1017.9 |
| 20260506141504 | 58 | 213 | 4.0 | 7.0 | 0.00 | 0.00 | 0.00 | 58 | 1017.9 |
| 20260506140004 | 58 | 272 | 3.0 | 9.0 | 0.00 | 0.00 | 0.00 | 59 | 1018.1 |
| 20260506134504 | 57 | 220 | 2.0 | 10.0 | 0.00 | 0.00 | 0.00 | 60 | 1018.1 |
| 20260506131504 | 57 | 244 | 5.0 | 14.0 | 0.00 | 0.00 | 0.00 | 61 | 1018.0 |
| 20260506130005 | 57 | 281 | 7.0 | 14.0 | 0.00 | 0.00 | 0.00 | 61 | 1017.8 |
| 20260506124504 | 56 | 220 | 7.0 | 15.0 | 0.00 | 0.00 | 0.00 | 62 | 1017.7 |
| 20260506123005 | 56 | 220 | 5.0 | 12.0 | 0.00 | 0.00 | 0.00 | 62 | 1017.7 |
| 20260506121504 | 57 | 202 | 6.0 | 16.0 | 0.00 | 0.00 | 0.00 | 62 | 1017.7 |
| 20260506120005 | 58 | 269 | 9.0 | 17.0 | 0.00 | 0.00 | 0.00 | 60 | 1017.7 |
| 20260506114505 | 58 | 223 | 5.0 | 12.0 | 0.00 | 0.00 | 0.00 | 59 | 1017.7 |
| 20260506113004 | 58 | 199 | 5.0 | 12.0 | 0.00 | 0.00 | 0.00 | 59 | 1017.7 |
| 20260506111504 | 59 | 217 | 3.0 | 12.0 | 0.00 | 0.00 | 0.00 | 58 | 1017.6 |
| 20260506110004 | 59 | 185 | 5.0 | 12.0 | 0.00 | 0.00 | 0.00 | 57 | 1017.4 |
| 20260506104504 | 59 | 234 | 4.0 | 12.0 | 0.00 | 0.00 | 0.00 | 56 | 1017.4 |
| 20260506103004 | 59 | 214 | 7.0 | 13.0 | 0.00 | 0.00 | 0.00 | 56 | 1017.4 |
| 20260506101504 | 58 | 183 | 5.0 | 10.0 | 0.00 | 0.00 | 0.00 | 58 | 1017.5 |
| 20260506100005 | 57 | 210 | 3.0 | 12.0 | 0.00 | 0.00 | 0.00 | 59 | 1017.5 |
| 20260506094504 | 56 | 178 | 8.0 | 12.0 | 0.00 | 0.00 | 0.00 | 58 | 1017.5 |
| 20260506093004 | 56 | 176 | 7.0 | 12.0 | 0.00 | 0.00 | 0.00 | 59 | 1017.5 |
| 20260506091504 | 56 | 210 | 5.0 | 13.0 | 0.00 | 0.00 | 0.00 | 59 | 1017.5 |
| 20260506084504 | 56 | 170 | 3.0 | 6.0 | 0.00 | 0.00 | 0.00 | 59 | 1017.1 |
| 20260506083004 | 55 | 202 | 5.0 | 14.0 | 0.00 | 0.00 | 0.00 | 59 | 1017.1 |
| 20260506081504 | 55 | 185 | 5.0 | 10.0 | 0.00 | 0.00 | 0.00 | 59 | 1017.1 |
| 20260506073004 | 53 | 0 | 0.0 | 0.0 | 0.00 | 0.00 | 0.00 | 65 | 1016.8 |
| 20260506071504 | 53 | 1 | 0.0 | 3.0 | 0.00 | 0.00 | 0.00 | 65 | 1016.8 |
| 20260506061505 | 52 | 172 | 3.0 | 6.0 | 0.00 | 0.00 | 0.00 | 65 | 1016.5 |
| 20260506044504 | 52 | 188 | 5.0 | 8.0 | 0.00 | 0.00 | 0.00 | 64 | 1016.1 |
| 20260506043004 | 52 | 159 | 5.0 | 6.0 | 0.00 | 0.00 | 0.00 | 65 | 1016.2 |
| 20260506041504 | 52 | 187 | 2.0 | 3.0 | 0.00 | 0.00 | 0.00 | 65 | 1016.1 |
| 20260506033005 | 51 | 165 | 1.0 | 5.0 | 0.00 | 0.00 | 0.00 | 65 | 1016.2 |
| 20260506031504 | 51 | 171 | 0.0 | 3.0 | 0.00 | 0.00 | 0.00 | 65 | 1016.2 |
| 20260506030004 | 51 | 171 | 2.0 | 3.0 | 0.00 | 0.00 | 0.00 | 65 | 1016.2 |
| 20260506024504 | 51 | 171 | 2.0 | 3.0 | 0.00 | 0.00 | 0.00 | 65 | 1016.2 |
| 20260506023004 | 51 | 173 | 1.0 | 2.0 | 0.00 | 0.00 | 0.00 | 65 | 1016.3 |
| 20260506020004 | 51 | 150 | 2.0 | 3.0 | 0.00 | 0.00 | 0.00 | 64 | 1016.3 |
| 20260506014504 | 51 | 150 | 3.0 | 6.0 | 0.00 | 0.00 | 0.00 | 64 | 1016.4 |
| 20260506011504 | 51 | 176 | 2.0 | 6.0 | 0.00 | 0.00 | 0.00 | 65 | 1016.5 |
| 20260506010004 | 51 | 181 | 3.0 | 6.0 | 0.00 | 0.00 | 0.00 | 65 | 1016.5 |
| 20260506004505 | 50 | 169 | 2.0 | 3.0 | 0.00 | 0.00 | 0.00 | 65 | 1016.7 |
| 20260506003004 | 50 | 169 | 2.0 | 3.0 | 0.00 | 0.00 | 0.00 | 65 | 1017.0 |
| 20260506001504 | 50 | 195 | 1.0 | 3.0 | 0.00 | 0.00 | 0.00 | 64 | 1017.1 |
| 20260506000004 | 50 | 195 | 2.0 | 3.0 | 0.00 | 0.00 | 0.00 | 64 | 1016.9 |
| 20260505234504 | 51 | 174 | 2.0 | 3.0 | 0.00 | 0.00 | 0.00 | 64 | 1017.1 |
| 20260505233005 | 51 | 173 | 2.0 | 3.0 | 0.00 | 0.00 | 0.00 | 63 | 1017.2 |
| 20260505231505 | 52 | 173 | 2.0 | 3.0 | 0.00 | 0.00 | 0.00 | 62 | 1017.3 |
| 20260505230004 | 52 | 174 | 2.0 | 5.0 | 0.00 | 0.00 | 0.00 | 62 | 1017.1 |
| 20260505224505 | 52 | 167 | 3.0 | 5.0 | 0.00 | 0.00 | 0.00 | 63 | 1017.0 |
| 20260505223005 | 52 | 174 | 3.0 | 7.0 | 0.00 | 0.00 | 0.00 | 63 | 1017.1 |
| 20260505221504 | 52 | 199 | 3.0 | 5.0 | 0.00 | 0.00 | 0.00 | 63 | 1017.3 |
| 20260505220004 | 52 | 192 | 2.0 | 3.0 | 0.00 | 0.00 | 0.00 | 63 | 1017.4 |
| 20260505211504 | 52 | 171 | 2.0 | 3.0 | 0.00 | 0.00 | 0.00 | 63 | 1017.6 |
| 20260505210004 | 53 | 168 | 3.0 | 3.0 | 0.00 | 0.00 | 0.00 | 60 | 1017.7 |
| 20260505204504 | 53 | 169 | 2.0 | 3.0 | 0.00 | 0.00 | 0.00 | 60 | 1017.5 |
| 20260505203004 | 55 | 0 | 0.0 | 0.0 | 0.00 | 0.00 | 0.00 | 60 | 1017.5 |
| 20260505201504 | 55 | 0 | 0.0 | 0.0 | 0.00 | 0.00 | 0.00 | 60 | 1017.4 |
| 20260505200004 | 55 | 0 | 0.0 | 9.0 | 0.00 | 0.00 | 0.00 | 60 | 1017.4 |
| 20260505194503 | 55 | 221 | 8.0 | 9.0 | 0.00 | 0.00 | 0.00 | 60 | 1017.3 |
| 20260505193004 | 55 | 195 | 6.0 | 12.0 | 0.00 | 0.00 | 0.00 | 60 | 1017.2 |
| 20260505191504 | 56 | 0 | 0.0 | 3.0 | 0.00 | 0.00 | 0.00 | 61 | 1017.2 |
| 20260505190004 | 56 | 183 | 3.0 | 7.0 | 0.00 | 0.00 | 0.00 | 61 | 1017.1 |
| 20260505184504 | 56 | 198 | 2.0 | 7.0 | 0.00 | 0.00 | 0.00 | 62 | 1016.9 |
| 20260505183004 | 56 | 187 | 2.0 | 5.0 | 0.00 | 0.00 | 0.00 | 62 | 1016.9 |
| 20260505181504 | 57 | 188 | 3.0 | 5.0 | 0.00 | 0.00 | 0.00 | 59 | 1016.8 |
| 20260505180004 | 57 | 0 | 0.0 | 0.0 | 0.00 | 0.00 | 0.00 | 59 | 1016.9 |
| 20260505174504 | 57 | 0 | 0.0 | 0.0 | 0.00 | 0.00 | 0.00 | 59 | 1016.8 |
| 20260505173005 | 57 | 0 | 0.0 | 0.0 | 0.00 | 0.00 | 0.00 | 59 | 1016.8 |
| 20260505171506 | 57 | 0 | 0.0 | 0.0 | 0.00 | 0.00 | 0.00 | 59 | 1016.9 |
| 20260505164504 | 57 | 192 | 3.0 | 6.0 | 0.00 | 0.00 | 0.00 | 59 | 1017.1 |
| 20260505163004 | 56 | 225 | 3.0 | 6.0 | 0.00 | 0.00 | 0.00 | 62 | 1017.0 |
| 20260505161504 | 56 | 206 | 2.0 | 5.0 | 0.00 | 0.00 | 0.00 | 63 | 1017.0 |